DW4862 Weather Reports


time (UTC)temp
F
wind
direction
speed
knots
gust
knots
rain 1hr
in
rain 24hr
in
rain mn
in
humidity
%
barometer
mb
20260510071540 64 243 0.0 7.0 0.00 0.04 0.00 78 1012.0
20260510070052 64 264 0.0 4.3 0.00 0.04 0.00 78 1011.9
20260510064543 64 276 0.0 9.6 0.00 0.04 0.00 77 1011.8
20260510063039 62 233 0.0 3.5 0.00 0.04 0.00 80 1011.7
20260510061530 59 204 0.0 0.0 0.00 0.04 0.00 84 1010.4
20260510060032 59 204 0.0 0.0 0.00 0.04 0.00 84 1010.3
20260510054525 60 204 0.0 0.0 0.00 0.04 0.00 84 1010.4
20260510053024 60 204 0.0 0.0 0.00 0.04 0.00 86 1010.4
20260510051523 60 205 0.0 0.0 0.00 0.04 0.00 86 1010.4
20260510050026 60 204 0.0 0.0 0.00 0.04 0.00 85 1010.4
20260510044520 60 204 0.0 0.0 0.00 0.04 0.04 86 1010.4
20260510043020 60 205 0.0 0.0 0.00 0.04 0.04 86 1010.4
20260510041518 61 204 0.0 0.0 0.00 0.04 0.04 85 1010.5
20260510040018 61 204 0.0 0.0 0.00 0.04 0.04 84 1010.5
20260510034517 62 204 0.0 0.0 0.00 0.04 0.04 83 1010.5
20260510033016 62 205 0.0 0.0 0.00 0.04 0.04 83 1010.5
20260510031516 63 204 0.0 0.0 0.00 0.04 0.04 84 1010.4
20260510030012 63 204 0.0 0.0 0.00 0.04 0.04 83 1010.4
20260510024516 63 204 0.0 0.0 0.00 0.04 0.04 83 1010.1
20260510023011 63 204 0.0 0.0 0.00 0.04 0.04 80 1010.1
20260510021510 64 205 0.0 0.0 0.00 0.04 0.04 79 1010.1
20260510020011 65 206 0.0 0.0 0.00 0.04 0.04 77 1009.7
20260510014511 66 204 0.0 0.0 0.00 0.04 0.04 76 1009.4
20260510013009 67 205 0.0 0.0 0.00 0.04 0.04 74 1009.2
20260510011509 69 205 0.0 0.0 0.00 0.04 0.04 71 1008.9
20260510010008 70 205 0.0 0.0 0.00 0.04 0.04 67 1008.7
20260510004508 73 204 0.0 0.0 0.00 0.04 0.04 63 1008.5
20260510003007 75 204 0.0 0.0 0.00 0.04 0.04 60 1008.3
20260510001518 78 205 0.0 0.0 0.00 0.04 0.04 56 1008.2
20260510000007 78 205 0.0 0.0 0.00 0.04 0.04 56 1008.2
20260509234509 79 331 0.0 0.0 0.00 0.04 0.04 54 1008.2
20260509233005 78 199 0.0 0.9 0.00 0.04 0.04 54 1008.3
20260509231506 78 210 0.0 0.9 0.00 0.04 0.04 54 1008.2
20260509230004 79 201 0.0 1.7 0.00 0.04 0.04 52 1008.2
20260509224502 79 221 0.0 2.6 0.00 0.04 0.04 52 1008.1
20260509223002 79 18 0.0 3.5 0.00 0.04 0.04 51 1008.3
20260509221502 79 278 0.9 5.2 0.00 0.04 0.04 48 1008.0
20260509220105 79 284 0.0 7.0 0.00 0.04 0.04 48 1007.9
20260509214559 80 27 0.0 7.8 0.00 0.04 0.04 51 1007.8
20260509213104 79 320 0.0 3.5 0.00 0.04 0.04 52 1007.8
20260509211603 80 215 0.0 6.1 0.00 0.04 0.04 49 1007.9
20260509210100 79 211 0.0 3.5 0.00 0.04 0.04 49 1008.0
20260509204600 79 302 0.0 3.5 0.00 0.04 0.04 46 1008.2
20260509203053 79 204 0.0 3.5 0.00 0.04 0.04 49 1008.1
20260509201550 78 258 0.0 4.3 0.00 0.04 0.04 50 1008.3
20260509200048 78 223 0.0 3.5 0.00 0.04 0.04 54 1008.4
20260509194546 77 232 0.0 3.5 0.00 0.04 0.04 55 1008.4
20260509193045 77 225 0.0 2.6 0.00 0.04 0.04 58 1008.5
20260509191541 76 218 0.0 2.6 0.00 0.04 0.04 62 1008.7
20260509190038 74 211 0.0 3.5 0.00 0.04 0.04 63 1008.9
20260509184536 73 205 0.0 6.1 0.00 0.04 0.04 67 1009.0
20260509183032 72 326 0.0 3.5 0.00 0.04 0.04 68 1009.2
20260509181526 71 207 0.0 3.5 0.00 0.04 0.04 67 1009.4
20260509180025 71 212 1.7 3.5 0.00 0.04 0.04 69 1009.4
20260509174521 69 214 0.0 2.6 0.00 0.04 0.04 73 1009.6
20260509173019 69 220 0.0 2.6 0.00 0.04 0.04 74 1009.9
20260509171515 68 214 0.0 3.5 0.00 0.04 0.04 76 1010.1
20260509170015 67 203 0.0 2.6 0.00 0.04 0.04 75 1010.0
20260509164512 67 32 0.0 6.1 0.00 0.04 0.04 76 1010.2
20260509163017 66 271 0.0 3.5 0.00 0.04 0.04 79 1010.3
20260509161509 65 218 0.0 3.5 0.00 0.04 0.04 78 1010.1
20260509160003 64 208 0.0 2.6 0.00 0.04 0.04 80 1010.1
20260509154616 63 222 0.0 2.6 0.00 0.04 0.04 80 1010.0
20260509153058 63 213 0.0 2.6 0.00 0.04 0.04 83 1009.9
20260509151555 62 217 0.0 2.6 0.00 0.04 0.04 83 1009.5
20260509150052 62 221 0.0 1.7 0.00 0.04 0.04 84 1009.4
20260509144605 61 278 0.0 2.6 0.00 0.04 0.04 86 1009.5
20260509143052 61 217 0.0 2.6 0.00 0.04 0.04 87 1009.5
20260509141544 60 220 0.0 4.3 0.00 0.04 0.04 94 1009.5
20260509140057 58 213 0.0 1.7 0.00 0.04 0.04 94 1009.4
20260509134544 56 210 0.0 0.9 0.00 0.04 0.04 94 1009.5
20260509133040 55 214 0.0 0.9 0.00 0.04 0.04 95 1009.4
20260509131552 55 274 0.0 0.9 0.00 0.04 0.04 95 1009.2
20260509130038 54 274 0.0 0.0 0.00 0.04 0.04 95 1009.1
20260509124542 53 274 0.0 0.0 0.00 0.04 0.04 95 1009.2
20260509123037 53 274 0.0 0.0 0.00 0.04 0.04 95 1009.1
20260509121549 52 274 0.0 0.0 0.00 0.04 0.04 95 1009.1
20260509120037 51 274 0.0 0.0 0.00 0.04 0.04 95 1009.0
20260509114535 50 274 0.0 0.0 0.00 0.04 0.04 95 1008.8
20260509113034 50 274 0.0 0.0 0.00 0.04 0.04 95 1008.5
20260509111532 50 274 0.0 0.0 0.00 0.04 0.04 95 1008.5
20260509110032 50 274 0.0 0.0 0.00 0.04 0.04 95 1008.4
20260509104529 51 274 0.0 0.0 0.00 0.04 0.04 95 1008.2
20260509103027 51 274 0.0 0.0 0.00 0.04 0.04 95 1008.0
20260509101525 52 274 0.0 0.0 0.00 0.04 0.04 95 1007.9
20260509100028 52 274 0.0 0.0 0.00 0.04 0.04 95 1008.0
20260509094520 53 274 0.0 0.0 0.00 0.04 0.04 95 1007.9
20260509093018 53 274 0.0 0.0 0.00 0.04 0.04 95 1007.8
20260509091515 54 274 0.0 0.0 0.00 0.04 0.04 95 1007.7
20260509090014 55 274 0.0 0.0 0.00 0.04 0.04 95 1007.5
20260509084515 55 274 0.0 0.0 0.00 0.04 0.04 95 1007.3
20260509083009 56 274 0.0 0.0 0.01 0.04 0.04 95 1007.1
20260509081507 56 274 0.0 0.0 0.02 0.04 0.04 95 1007.2
20260509080004 56 274 0.0 0.0 0.03 0.04 0.04 95 1007.5
20260509074603 56 274 0.0 0.0 0.04 0.04 0.04 95 1007.9
20260509073058 57 274 0.0 0.0 0.03 0.03 0.03 94 1008.1